Year,Month,Day,Hour,Minute,Value (Times are PST for temperature in C)
2019,04,01,00,00,6.90
2019,04,01,00,01,6.90
2019,04,01,00,02,6.90
2019,04,01,00,03,6.80
2019,04,01,00,04,6.80
2019,04,01,00,05,6.70
2019,04,01,00,06,6.70
2019,04,01,00,07,6.60
2019,04,01,00,08,6.60
2019,04,01,00,09,6.50
2019,04,01,00,10,6.50
2019,04,01,00,11,6.40
2019,04,01,00,12,6.40
2019,04,01,00,13,6.30
2019,04,01,00,14,6.30
2019,04,01,00,15,6.30
2019,04,01,00,16,6.30
2019,04,01,00,17,6.30
2019,04,01,00,18,6.30
2019,04,01,00,19,6.30
2019,04,01,00,20,6.30
2019,04,01,00,21,6.40
2019,04,01,00,22,6.40
2019,04,01,00,23,6.40
2019,04,01,00,24,6.50
2019,04,01,00,25,6.50
2019,04,01,00,26,6.50
2019,04,01,00,27,6.60
2019,04,01,00,28,6.60
2019,04,01,00,29,6.70
2019,04,01,00,30,6.70
2019,04,01,00,31,6.70
2019,04,01,00,32,6.80
2019,04,01,00,33,6.80
2019,04,01,00,34,6.80
2019,04,01,00,35,6.90
2019,04,01,00,36,6.90
2019,04,01,00,37,6.90
2019,04,01,00,38,6.90
2019,04,01,00,39,6.90
2019,04,01,00,40,6.90
2019,04,01,00,41,6.90
2019,04,01,00,42,6.90
2019,04,01,00,43,6.90
2019,04,01,00,44,6.90
2019,04,01,00,45,6.90
2019,04,01,00,46,6.90
2019,04,01,00,47,6.90
2019,04,01,00,48,6.90
2019,04,01,00,49,6.80
2019,04,01,00,50,6.80
2019,04,01,00,51,6.80
2019,04,01,00,52,6.80
2019,04,01,00,53,6.70
2019,04,01,00,54,6.70
2019,04,01,00,55,6.70
2019,04,01,00,56,6.60
2019,04,01,00,57,6.60
2019,04,01,00,58,6.60
2019,04,01,00,59,6.60
2019,04,01,01,00,6.50
2019,04,01,01,01,6.50
2019,04,01,01,02,6.40
2019,04,01,01,03,6.40
2019,04,01,01,04,6.30
2019,04,01,01,05,6.30
2019,04,01,01,06,6.30
2019,04,01,01,07,6.30
2019,04,01,01,08,6.20
2019,04,01,01,09,6.20
2019,04,01,01,10,6.20
2019,04,01,01,11,6.20
2019,04,01,01,12,6.10
2019,04,01,01,13,6.10
2019,04,01,01,14,6.10
2019,04,01,01,15,6.00
2019,04,01,01,16,6.00
2019,04,01,01,17,5.90
2019,04,01,01,18,5.90
2019,04,01,01,19,5.90
2019,04,01,01,20,5.80
2019,04,01,01,21,5.80
2019,04,01,01,22,5.80
2019,04,01,01,23,5.80
2019,04,01,01,24,5.70
2019,04,01,01,25,5.70
2019,04,01,01,26,5.70
2019,04,01,01,27,5.70
2019,04,01,01,28,5.70
2019,04,01,01,29,5.80
2019,04,01,01,30,5.80
2019,04,01,01,31,5.90
2019,04,01,01,32,6.00
2019,04,01,01,33,6.00
2019,04,01,01,34,6.10
2019,04,01,01,35,6.10
2019,04,01,01,36,6.10
2019,04,01,01,37,6.10
2019,04,01,01,38,6.10
2019,04,01,01,39,6.10
2019,04,01,01,40,6.10
2019,04,01,01,41,6.00
2019,04,01,01,42,6.00
2019,04,01,01,43,6.00
2019,04,01,01,44,5.90
2019,04,01,01,45,5.90
2019,04,01,01,46,5.90
2019,04,01,01,47,5.90
2019,04,01,01,48,5.90
2019,04,01,01,49,5.90
2019,04,01,01,50,5.90
2019,04,01,01,51,5.90
2019,04,01,01,52,5.80
2019,04,01,01,53,5.80
2019,04,01,01,54,5.80
2019,04,01,01,55,5.80
2019,04,01,01,56,5.80
2019,04,01,01,57,5.80
2019,04,01,01,58,5.80
2019,04,01,01,59,5.70
2019,04,01,02,00,5.70
2019,04,01,02,01,5.70
2019,04,01,02,02,5.70
2019,04,01,02,03,5.70
2019,04,01,02,04,5.70
2019,04,01,02,05,5.70
2019,04,01,02,06,5.70
2019,04,01,02,07,5.70
2019,04,01,02,08,5.70
2019,04,01,02,09,5.70
2019,04,01,02,10,5.80
2019,04,01,02,11,5.80
2019,04,01,02,12,5.80
2019,04,01,02,13,5.80
2019,04,01,02,14,5.80
2019,04,01,02,15,5.80
2019,04,01,02,16,5.80
2019,04,01,02,17,5.80
2019,04,01,02,18,5.80
2019,04,01,02,19,5.80
2019,04,01,02,20,5.80
2019,04,01,02,21,5.80
2019,04,01,02,22,5.90
2019,04,01,02,23,5.90
2019,04,01,02,24,5.90
2019,04,01,02,25,5.90
2019,04,01,02,26,5.90
2019,04,01,02,27,5.90
2019,04,01,02,28,5.90
2019,04,01,02,29,5.90
2019,04,01,02,30,5.90
2019,04,01,02,31,5.90
2019,04,01,02,32,5.90
2019,04,01,02,33,5.80
2019,04,01,02,34,5.80
2019,04,01,02,35,5.80
2019,04,01,02,36,5.80
2019,04,01,02,37,5.80
2019,04,01,02,38,5.70
2019,04,01,02,39,5.70
2019,04,01,02,40,5.70
2019,04,01,02,41,5.70
2019,04,01,02,42,5.60
2019,04,01,02,43,5.60
2019,04,01,02,44,5.60
2019,04,01,02,45,5.60
2019,04,01,02,46,5.60
2019,04,01,02,47,5.50
2019,04,01,02,48,5.50
2019,04,01,02,49,5.50
2019,04,01,02,50,5.50
2019,04,01,02,51,5.50
2019,04,01,02,52,5.50
2019,04,01,02,53,5.50
2019,04,01,02,54,5.60
2019,04,01,02,55,5.60
2019,04,01,02,56,5.60
2019,04,01,02,57,5.60
2019,04,01,02,58,5.60
2019,04,01,02,59,5.60
2019,04,01,03,00,5.60
2019,04,01,03,01,5.60
2019,04,01,03,02,5.60
2019,04,01,03,03,5.60
2019,04,01,03,04,5.50
2019,04,01,03,05,5.50
2019,04,01,03,06,5.50
2019,04,01,03,07,5.50
2019,04,01,03,08,5.50
2019,04,01,03,09,5.50
2019,04,01,03,10,5.50
2019,04,01,03,11,5.50
2019,04,01,03,12,5.60
2019,04,01,03,13,5.60
2019,04,01,03,14,5.60
2019,04,01,03,15,5.70
2019,04,01,03,16,5.70
2019,04,01,03,17,5.70
2019,04,01,03,18,5.70
2019,04,01,03,19,5.70
2019,04,01,03,20,5.80
2019,04,01,03,21,5.80
2019,04,01,03,22,5.80
2019,04,01,03,23,5.80
2019,04,01,03,24,5.80
2019,04,01,03,25,5.80
2019,04,01,03,26,5.80
2019,04,01,03,27,5.80
2019,04,01,03,28,5.80
2019,04,01,03,29,5.80
2019,04,01,03,30,5.70
2019,04,01,03,31,5.70
2019,04,01,03,32,5.70
2019,04,01,03,33,5.70
2019,04,01,03,34,5.60
2019,04,01,03,35,5.60
2019,04,01,03,36,5.60
2019,04,01,03,37,5.60
2019,04,01,03,38,5.50
2019,04,01,03,39,5.50
2019,04,01,03,40,5.50
2019,04,01,03,41,5.50
2019,04,01,03,42,5.50
2019,04,01,03,43,5.50
2019,04,01,03,44,5.50
2019,04,01,03,45,5.50
2019,04,01,03,46,5.60
2019,04,01,03,47,5.70
2019,04,01,03,48,5.70
2019,04,01,03,49,5.80
2019,04,01,03,50,5.80
2019,04,01,03,51,5.90
2019,04,01,03,52,5.90
2019,04,01,03,53,5.90
2019,04,01,03,54,6.00
2019,04,01,03,55,6.00
2019,04,01,03,56,6.10
2019,04,01,03,57,6.20
2019,04,01,03,58,6.30
2019,04,01,03,59,6.50
2019,04,01,04,00,6.60
2019,04,01,04,01,6.70
2019,04,01,04,02,6.80
2019,04,01,04,03,7.00
2019,04,01,04,04,7.10
2019,04,01,04,05,7.20
2019,04,01,04,06,7.20
2019,04,01,04,07,7.30
2019,04,01,04,08,7.30
2019,04,01,04,09,7.30
2019,04,01,04,10,7.30
2019,04,01,04,11,7.30
2019,04,01,04,12,7.30
2019,04,01,04,13,7.20
2019,04,01,04,14,7.10
2019,04,01,04,15,7.00
2019,04,01,04,16,6.90
2019,04,01,04,17,6.70
2019,04,01,04,18,6.50
2019,04,01,04,19,6.30
2019,04,01,04,20,6.10
2019,04,01,04,21,5.90
2019,04,01,04,22,5.80
2019,04,01,04,23,5.60
2019,04,01,04,24,5.40
2019,04,01,04,25,5.30
2019,04,01,04,26,5.20
2019,04,01,04,27,5.10
2019,04,01,04,28,5.00
2019,04,01,04,29,5.00
2019,04,01,04,30,4.90
2019,04,01,04,31,4.90
2019,04,01,04,32,4.90
2019,04,01,04,33,4.90
2019,04,01,04,34,4.90
2019,04,01,04,35,4.90
2019,04,01,04,36,5.00
2019,04,01,04,37,5.00
2019,04,01,04,38,5.10
2019,04,01,04,39,5.10
2019,04,01,04,40,5.10
2019,04,01,04,41,5.20
2019,04,01,04,42,5.20
2019,04,01,04,43,5.20
2019,04,01,04,44,5.30
2019,04,01,04,45,5.30
2019,04,01,04,46,5.30
2019,04,01,04,47,5.30
2019,04,01,04,48,5.30
2019,04,01,04,49,5.30
2019,04,01,04,50,5.30
2019,04,01,04,51,5.30
2019,04,01,04,52,5.30
2019,04,01,04,53,5.40
2019,04,01,04,54,5.40
2019,04,01,04,55,5.40
2019,04,01,04,56,5.50
2019,04,01,04,57,5.60
2019,04,01,04,58,5.70
2019,04,01,04,59,5.80
2019,04,01,05,00,5.90
2019,04,01,05,01,6.10
2019,04,01,05,02,6.20
2019,04,01,05,03,6.40
2019,04,01,05,04,6.60
2019,04,01,05,05,6.80
2019,04,01,05,06,7.00
2019,04,01,05,07,7.30
2019,04,01,05,08,7.60
2019,04,01,05,09,7.80
2019,04,01,05,10,8.10
2019,04,01,05,11,8.30
2019,04,01,05,12,8.50
2019,04,01,05,13,8.70
2019,04,01,05,14,8.80
2019,04,01,05,15,8.90
2019,04,01,05,16,9.00
2019,04,01,05,17,9.10
2019,04,01,05,18,9.20
2019,04,01,05,19,9.20
2019,04,01,05,20,9.30
2019,04,01,05,21,9.30
2019,04,01,05,22,9.30
2019,04,01,05,23,9.30
2019,04,01,05,24,9.30
2019,04,01,05,25,9.30
2019,04,01,05,26,9.40
2019,04,01,05,27,9.40
2019,04,01,05,28,9.40
2019,04,01,05,29,9.40
2019,04,01,05,30,9.40
2019,04,01,05,31,9.40
2019,04,01,05,32,9.50
2019,04,01,05,33,9.40
2019,04,01,05,34,9.40
2019,04,01,05,35,9.50
2019,04,01,05,36,9.50
2019,04,01,05,37,9.50
2019,04,01,05,38,9.50
2019,04,01,05,39,9.60
2019,04,01,05,40,9.70
2019,04,01,05,41,9.70
2019,04,01,05,42,9.70
2019,04,01,05,43,9.70
2019,04,01,05,44,9.70
2019,04,01,05,45,9.70
2019,04,01,05,46,9.60
2019,04,01,05,47,9.60
2019,04,01,05,48,9.60
2019,04,01,05,49,9.60
2019,04,01,05,50,9.60
2019,04,01,05,51,9.70
2019,04,01,05,52,9.60
2019,04,01,05,53,9.60
2019,04,01,05,54,9.60
2019,04,01,05,55,9.60
2019,04,01,05,56,9.50
2019,04,01,05,57,9.50
2019,04,01,05,58,9.50
2019,04,01,05,59,9.40
2019,04,01,06,00,9.40
2019,04,01,06,01,9.30
2019,04,01,06,02,9.30
2019,04,01,06,03,9.30
2019,04,01,06,04,9.20
2019,04,01,06,05,9.20
2019,04,01,06,06,9.10
2019,04,01,06,07,9.10
2019,04,01,06,08,9.10
2019,04,01,06,09,9.20
2019,04,01,06,10,9.30
2019,04,01,06,11,9.30
2019,04,01,06,12,9.30
2019,04,01,06,13,9.40
2019,04,01,06,14,9.40
2019,04,01,06,15,9.40
2019,04,01,06,16,9.40
2019,04,01,06,17,9.40
2019,04,01,06,18,9.40
2019,04,01,06,19,9.40
2019,04,01,06,20,9.40
2019,04,01,06,21,9.40
2019,04,01,06,22,9.40
2019,04,01,06,23,9.40
2019,04,01,06,24,9.40
2019,04,01,06,25,9.40
2019,04,01,06,26,9.40
2019,04,01,06,27,9.40
2019,04,01,06,28,9.30
2019,04,01,06,29,9.30
2019,04,01,06,30,9.30
2019,04,01,06,31,9.30
2019,04,01,06,32,9.40
2019,04,01,06,33,9.40
2019,04,01,06,34,9.40
2019,04,01,06,35,9.50
2019,04,01,06,36,9.40
2019,04,01,06,37,9.40
2019,04,01,06,38,9.40
2019,04,01,06,39,9.40
2019,04,01,06,40,9.30
2019,04,01,06,41,9.30
2019,04,01,06,42,9.30
2019,04,01,06,43,9.20
2019,04,01,06,44,9.20
2019,04,01,06,45,9.10
2019,04,01,06,46,9.10
2019,04,01,06,47,9.10
2019,04,01,06,48,9.10
2019,04,01,06,49,9.00
2019,04,01,06,50,9.00
2019,04,01,06,51,9.00
2019,04,01,06,52,8.90
2019,04,01,06,53,8.90
2019,04,01,06,54,8.90
2019,04,01,06,55,8.80
2019,04,01,06,56,8.80
2019,04,01,06,57,8.70
2019,04,01,06,58,8.70
2019,04,01,06,59,8.60
2019,04,01,07,00,8.60
2019,04,01,07,01,8.50
2019,04,01,07,02,8.50
2019,04,01,07,03,8.40
2019,04,01,07,04,8.40
2019,04,01,07,05,8.40
2019,04,01,07,06,8.40
2019,04,01,07,07,8.40
2019,04,01,07,08,8.40
2019,04,01,07,09,8.40
2019,04,01,07,10,8.40
2019,04,01,07,11,8.40
2019,04,01,07,12,8.40
2019,04,01,07,13,8.40
2019,04,01,07,14,8.40
2019,04,01,07,15,8.30
2019,04,01,07,16,8.40
2019,04,01,07,17,8.40
2019,04,01,07,18,8.40
2019,04,01,07,19,8.40
2019,04,01,07,20,8.40
2019,04,01,07,21,8.40
2019,04,01,07,22,8.40
2019,04,01,07,23,8.40
2019,04,01,07,24,8.40
2019,04,01,07,25,8.40
2019,04,01,07,26,8.40
2019,04,01,07,27,8.50
2019,04,01,07,28,8.40
2019,04,01,07,29,8.40
2019,04,01,07,30,8.50
2019,04,01,07,31,8.50
2019,04,01,07,32,8.50
2019,04,01,07,33,8.60
2019,04,01,07,34,8.60
2019,04,01,07,35,8.70
2019,04,01,07,36,8.70
2019,04,01,07,37,8.80
2019,04,01,07,38,8.80
2019,04,01,07,39,8.80
2019,04,01,07,40,8.90
2019,04,01,07,41,8.90
2019,04,01,07,42,8.90
2019,04,01,07,43,9.00
2019,04,01,07,44,9.00
2019,04,01,07,45,9.00
2019,04,01,07,46,9.00
2019,04,01,07,47,9.00
2019,04,01,07,48,9.00
2019,04,01,07,49,9.10
2019,04,01,07,50,9.10
2019,04,01,07,51,9.10
2019,04,01,07,52,9.10
2019,04,01,07,53,9.10
2019,04,01,07,54,9.10
2019,04,01,07,55,9.10
2019,04,01,07,56,9.10
2019,04,01,07,57,9.20
2019,04,01,07,58,9.20
2019,04,01,07,59,9.20
2019,04,01,08,00,9.20
2019,04,01,08,01,9.20
2019,04,01,08,02,9.20
2019,04,01,08,03,9.30
2019,04,01,08,04,9.40
2019,04,01,08,05,9.40
2019,04,01,08,06,9.50
2019,04,01,08,07,9.60
2019,04,01,08,08,9.60
2019,04,01,08,09,9.70
2019,04,01,08,10,9.70
2019,04,01,08,11,9.70
2019,04,01,08,12,9.80
2019,04,01,08,13,9.80
2019,04,01,08,14,9.80
2019,04,01,08,15,9.90
2019,04,01,08,16,9.90
2019,04,01,08,17,10.00
2019,04,01,08,18,10.00
2019,04,01,08,19,10.10
2019,04,01,08,20,10.10
2019,04,01,08,21,10.20
2019,04,01,08,22,10.30
2019,04,01,08,23,10.30
2019,04,01,08,24,10.40
2019,04,01,08,25,10.40
2019,04,01,08,26,10.40
2019,04,01,08,27,10.50
2019,04,01,08,28,10.50
2019,04,01,08,29,10.60
2019,04,01,08,30,10.60
2019,04,01,08,31,10.70
2019,04,01,08,32,10.70
2019,04,01,08,33,10.80
2019,04,01,08,34,10.80
2019,04,01,08,35,10.80
2019,04,01,08,36,10.70
2019,04,01,08,37,10.70
2019,04,01,08,38,10.70
2019,04,01,08,39,10.60
2019,04,01,08,40,10.60
2019,04,01,08,41,10.60
2019,04,01,08,42,10.60
2019,04,01,08,43,10.60
2019,04,01,08,44,10.60
2019,04,01,08,45,10.60
2019,04,01,08,46,10.60
2019,04,01,08,47,10.50
2019,04,01,08,48,10.50
2019,04,01,08,49,10.50
2019,04,01,08,50,10.40
2019,04,01,08,51,10.40
2019,04,01,08,52,10.40
2019,04,01,08,53,10.50
2019,04,01,08,54,10.60
2019,04,01,08,55,10.70
2019,04,01,08,56,10.80
2019,04,01,08,57,10.80
2019,04,01,08,58,11.00
2019,04,01,08,59,11.10
2019,04,01,09,00,11.20
2019,04,01,09,01,11.20
2019,04,01,09,02,11.30
2019,04,01,09,03,11.30
2019,04,01,09,04,11.30
2019,04,01,09,05,11.40
2019,04,01,09,06,11.40
2019,04,01,09,07,11.40
2019,04,01,09,08,11.50
2019,04,01,09,09,11.60
2019,04,01,09,10,11.60
2019,04,01,09,11,11.70
2019,04,01,09,12,11.70
2019,04,01,09,13,11.80
2019,04,01,09,14,11.90
2019,04,01,09,15,11.90
2019,04,01,09,16,12.00
2019,04,01,09,17,12.10
2019,04,01,09,18,12.10
2019,04,01,09,19,12.20
2019,04,01,09,20,12.30
2019,04,01,09,21,12.40
2019,04,01,09,22,12.40
2019,04,01,09,23,12.50
2019,04,01,09,24,12.60
2019,04,01,09,25,12.70
2019,04,01,09,26,12.70
2019,04,01,09,27,12.80
2019,04,01,09,28,12.80
2019,04,01,09,29,12.80
2019,04,01,09,30,12.80
2019,04,01,09,31,12.80
2019,04,01,09,32,12.90
2019,04,01,09,33,13.00
2019,04,01,09,34,13.10
2019,04,01,09,35,13.20
2019,04,01,09,36,13.30
2019,04,01,09,37,13.30
2019,04,01,09,38,13.30
2019,04,01,09,39,13.30
2019,04,01,09,40,13.20
2019,04,01,09,41,13.20
2019,04,01,09,42,13.30
2019,04,01,09,43,13.30
2019,04,01,09,44,13.40
2019,04,01,09,45,13.50
2019,04,01,09,46,13.60
2019,04,01,09,47,13.70
2019,04,01,09,48,13.70
2019,04,01,09,49,13.70
2019,04,01,09,50,13.60
2019,04,01,09,51,13.60
2019,04,01,09,52,13.60
2019,04,01,09,53,13.60
2019,04,01,09,54,13.60
2019,04,01,09,55,13.60
2019,04,01,09,56,13.70
2019,04,01,09,57,13.70
2019,04,01,09,58,13.70
2019,04,01,09,59,13.70
2019,04,01,10,00,13.80
2019,04,01,10,01,13.80
2019,04,01,10,02,13.80
2019,04,01,10,03,13.80
2019,04,01,10,04,13.80
2019,04,01,10,05,13.80
2019,04,01,10,06,13.80
2019,04,01,10,07,13.80
2019,04,01,10,08,13.80
2019,04,01,10,09,13.80
2019,04,01,10,10,13.90
2019,04,01,10,11,13.90
2019,04,01,10,12,13.90
2019,04,01,10,13,14.00
2019,04,01,10,14,14.00
2019,04,01,10,15,14.00
2019,04,01,10,16,14.00
2019,04,01,10,17,14.00
2019,04,01,10,18,14.10
2019,04,01,10,19,14.20
2019,04,01,10,20,14.20
2019,04,01,10,21,14.30
2019,04,01,10,22,14.30
2019,04,01,10,23,14.30
2019,04,01,10,24,14.30
2019,04,01,10,25,14.30
2019,04,01,10,26,14.20
2019,04,01,10,27,14.30
2019,04,01,10,28,14.30
2019,04,01,10,29,14.30
2019,04,01,10,30,14.30
2019,04,01,10,31,14.30
2019,04,01,10,32,14.40
2019,04,01,10,33,14.40
2019,04,01,10,34,14.40
2019,04,01,10,35,14.50
2019,04,01,10,36,14.60
2019,04,01,10,37,14.70
2019,04,01,10,38,14.70
2019,04,01,10,39,14.70
2019,04,01,10,40,14.70
2019,04,01,10,41,14.70
2019,04,01,10,42,14.70
2019,04,01,10,43,14.70
2019,04,01,10,44,14.80
2019,04,01,10,45,14.90
2019,04,01,10,46,15.00
2019,04,01,10,47,15.10
2019,04,01,10,48,15.30
2019,04,01,10,49,15.30
2019,04,01,10,50,15.40
2019,04,01,10,51,15.40
2019,04,01,10,52,15.40
2019,04,01,10,53,15.40
2019,04,01,10,54,15.50
2019,04,01,10,55,15.60
2019,04,01,10,56,15.60
2019,04,01,10,57,15.70
2019,04,01,10,58,15.60
2019,04,01,10,59,15.50
2019,04,01,11,00,15.40
2019,04,01,11,01,15.30
2019,04,01,11,02,15.30
2019,04,01,11,03,15.30
2019,04,01,11,04,15.30
2019,04,01,11,05,15.30
2019,04,01,11,06,15.20
2019,04,01,11,07,15.30
2019,04,01,11,08,15.50
2019,04,01,11,09,15.50
2019,04,01,11,10,15.40
2019,04,01,11,11,15.30
2019,04,01,11,12,15.30
2019,04,01,11,13,15.30
2019,04,01,11,14,15.30
2019,04,01,11,15,15.30
2019,04,01,11,16,15.40
2019,04,01,11,17,15.40
2019,04,01,11,18,15.30
2019,04,01,11,19,15.40
2019,04,01,11,20,15.50
2019,04,01,11,21,15.60
2019,04,01,11,22,15.60
2019,04,01,11,23,15.60
2019,04,01,11,24,15.50
2019,04,01,11,25,15.50
2019,04,01,11,26,15.60
2019,04,01,11,27,15.70
2019,04,01,11,28,15.90
2019,04,01,11,29,15.90
2019,04,01,11,30,15.80
2019,04,01,11,31,15.80
2019,04,01,11,32,15.80
2019,04,01,11,33,15.80
2019,04,01,11,34,15.80
2019,04,01,11,35,15.90
2019,04,01,11,36,15.90
2019,04,01,11,37,15.90
2019,04,01,11,38,15.90
2019,04,01,11,39,15.90
2019,04,01,11,40,15.90
2019,04,01,11,41,16.00
2019,04,01,11,42,16.10
2019,04,01,11,43,16.10
2019,04,01,11,44,16.10
2019,04,01,11,45,16.10
2019,04,01,11,46,16.10
2019,04,01,11,47,16.10
2019,04,01,11,48,16.10
2019,04,01,11,49,16.00
2019,04,01,11,50,15.90
2019,04,01,11,51,16.00
2019,04,01,11,52,16.10
2019,04,01,11,53,16.10
2019,04,01,11,54,16.00
2019,04,01,11,55,15.90
2019,04,01,11,56,15.90
2019,04,01,11,57,15.90
2019,04,01,11,58,15.80
2019,04,01,11,59,15.80
2019,04,01,12,00,15.80
2019,04,01,12,01,15.80
2019,04,01,12,02,15.80
2019,04,01,12,03,15.80
2019,04,01,12,04,15.80
2019,04,01,12,05,15.90
2019,04,01,12,06,15.80
2019,04,01,12,07,15.90
2019,04,01,12,08,15.90
2019,04,01,12,09,16.00
2019,04,01,12,10,16.10
2019,04,01,12,11,16.30
2019,04,01,12,12,16.40
2019,04,01,12,13,16.40
2019,04,01,12,14,16.40
2019,04,01,12,15,16.40
2019,04,01,12,16,16.40
2019,04,01,12,17,16.40
2019,04,01,12,18,16.50
2019,04,01,12,19,16.60
2019,04,01,12,20,16.70
2019,04,01,12,21,16.70
2019,04,01,12,22,16.70
2019,04,01,12,23,16.90
2019,04,01,12,24,16.90
2019,04,01,12,25,16.90
2019,04,01,12,26,16.90
2019,04,01,12,27,16.90
2019,04,01,12,28,17.00
2019,04,01,12,29,17.10
2019,04,01,12,30,17.10
2019,04,01,12,31,17.00
2019,04,01,12,32,16.80
2019,04,01,12,33,16.80
2019,04,01,12,34,16.70
2019,04,01,12,35,16.70
2019,04,01,12,36,16.70
2019,04,01,12,37,16.60
2019,04,01,12,38,16.60
2019,04,01,12,39,16.70
2019,04,01,12,40,16.70
2019,04,01,12,41,16.60
2019,04,01,12,42,16.50
2019,04,01,12,43,16.40
2019,04,01,12,44,16.30
2019,04,01,12,45,16.30
2019,04,01,12,46,16.30
2019,04,01,12,47,16.30
2019,04,01,12,48,16.40
2019,04,01,12,49,16.50
2019,04,01,12,50,16.60
2019,04,01,12,51,16.60
2019,04,01,12,52,16.70
2019,04,01,12,53,16.70
2019,04,01,12,54,16.80
2019,04,01,12,55,16.90
2019,04,01,12,56,16.90
2019,04,01,12,57,16.90
2019,04,01,12,58,16.90
2019,04,01,12,59,16.90
2019,04,01,13,00,16.90
2019,04,01,13,01,16.90
2019,04,01,13,02,16.90
2019,04,01,13,03,16.90
2019,04,01,13,04,16.90
2019,04,01,13,05,16.80
2019,04,01,13,06,16.80
2019,04,01,13,07,16.70
2019,04,01,13,08,16.70
2019,04,01,13,09,16.80
2019,04,01,13,10,16.90
2019,04,01,13,11,17.00
2019,04,01,13,12,17.10
2019,04,01,13,13,17.10
2019,04,01,13,14,17.10
2019,04,01,13,15,17.10
2019,04,01,13,16,17.20
2019,04,01,13,17,17.10
2019,04,01,13,18,17.10
2019,04,01,13,19,17.20
2019,04,01,13,20,17.20
2019,04,01,13,21,17.20
2019,04,01,13,22,17.30
2019,04,01,13,23,17.30
2019,04,01,13,24,17.30
2019,04,01,13,25,17.30
2019,04,01,13,26,17.30
2019,04,01,13,27,17.10
2019,04,01,13,28,17.00
2019,04,01,13,29,17.00
2019,04,01,13,30,17.00
2019,04,01,13,31,17.10
2019,04,01,13,32,17.20
2019,04,01,13,33,17.30
2019,04,01,13,34,17.30
2019,04,01,13,35,17.40
2019,04,01,13,36,17.40
2019,04,01,13,37,17.30
2019,04,01,13,38,17.30
2019,04,01,13,39,17.30
2019,04,01,13,40,17.30
2019,04,01,13,41,17.30
2019,04,01,13,42,17.40
2019,04,01,13,43,17.50
2019,04,01,13,44,17.50
2019,04,01,13,45,17.60
2019,04,01,13,46,17.70
2019,04,01,13,47,17.80
2019,04,01,13,48,17.90
2019,04,01,13,49,17.90
2019,04,01,13,50,18.00
2019,04,01,13,51,18.00
2019,04,01,13,52,17.90
2019,04,01,13,53,17.80
2019,04,01,13,54,17.70
2019,04,01,13,55,17.50
2019,04,01,13,56,17.40
2019,04,01,13,57,17.40
2019,04,01,13,58,17.40
2019,04,01,13,59,17.30
2019,04,01,14,00,17.30
2019,04,01,14,01,17.30
2019,04,01,14,02,17.40
2019,04,01,14,03,17.50
2019,04,01,14,04,17.60
2019,04,01,14,05,17.80
2019,04,01,14,06,18.00
2019,04,01,14,07,18.10
2019,04,01,14,08,18.20
2019,04,01,14,09,18.30
2019,04,01,14,10,18.40
2019,04,01,14,11,18.40
2019,04,01,14,12,18.30
2019,04,01,14,13,18.20
2019,04,01,14,14,18.20
2019,04,01,14,15,18.10
2019,04,01,14,16,18.10
2019,04,01,14,17,18.10
2019,04,01,14,18,18.10
2019,04,01,14,19,18.10
2019,04,01,14,20,18.10
2019,04,01,14,21,18.10
2019,04,01,14,22,18.10
2019,04,01,14,23,18.10
2019,04,01,14,24,18.10
2019,04,01,14,25,18.10
2019,04,01,14,26,18.20
2019,04,01,14,27,18.30
2019,04,01,14,28,18.30
2019,04,01,14,29,18.30
2019,04,01,14,30,18.40
2019,04,01,14,31,18.40
2019,04,01,14,32,18.30
2019,04,01,14,33,18.30
2019,04,01,14,34,18.20
2019,04,01,14,35,18.20
2019,04,01,14,36,18.10
2019,04,01,14,37,18.10
2019,04,01,14,38,18.10
2019,04,01,14,39,18.20
2019,04,01,14,40,18.30
2019,04,01,14,41,18.40
2019,04,01,14,42,18.40
2019,04,01,14,43,18.40
2019,04,01,14,44,18.40
2019,04,01,14,45,18.30
2019,04,01,14,46,18.40
2019,04,01,14,47,18.40
2019,04,01,14,48,18.50
2019,04,01,14,49,18.60
2019,04,01,14,50,18.60
2019,04,01,14,51,18.60
2019,04,01,14,52,18.70
2019,04,01,14,53,18.80
2019,04,01,14,54,18.90
2019,04,01,14,55,19.00
2019,04,01,14,56,19.10
2019,04,01,14,57,19.20
2019,04,01,14,58,19.20
2019,04,01,14,59,19.20
2019,04,01,15,00,19.10
2019,04,01,15,01,19.00
2019,04,01,15,02,18.90
2019,04,01,15,03,18.80
2019,04,01,15,04,18.80
2019,04,01,15,05,18.80
2019,04,01,15,06,18.90
2019,04,01,15,07,18.90
2019,04,01,15,08,18.80
2019,04,01,15,09,18.80
2019,04,01,15,10,18.70
2019,04,01,15,11,18.70
2019,04,01,15,12,18.70
2019,04,01,15,13,18.80
2019,04,01,15,14,18.80
2019,04,01,15,15,18.90
2019,04,01,15,16,19.00
2019,04,01,15,17,19.00
2019,04,01,15,18,19.00
2019,04,01,15,19,19.00
2019,04,01,15,20,19.00
2019,04,01,15,21,19.20
2019,04,01,15,22,19.20
2019,04,01,15,23,19.30
2019,04,01,15,24,19.30
2019,04,01,15,25,19.30
2019,04,01,15,26,19.20
2019,04,01,15,27,19.20
2019,04,01,15,28,19.30
2019,04,01,15,29,19.50
2019,04,01,15,30,19.60
2019,04,01,15,31,19.70
2019,04,01,15,32,19.70
2019,04,01,15,33,19.60
2019,04,01,15,34,19.60
2019,04,01,15,35,19.50
2019,04,01,15,36,19.50
2019,04,01,15,37,19.40
2019,04,01,15,38,19.40
2019,04,01,15,39,19.30
2019,04,01,15,40,19.20
2019,04,01,15,41,19.10
2019,04,01,15,42,19.10
2019,04,01,15,43,19.10
2019,04,01,15,44,19.10
2019,04,01,15,45,19.20
2019,04,01,15,46,19.30
2019,04,01,15,47,19.30
2019,04,01,15,48,19.40
2019,04,01,15,49,19.50
2019,04,01,15,50,19.60
2019,04,01,15,51,19.70
2019,04,01,15,52,19.70
2019,04,01,15,53,19.80
2019,04,01,15,54,19.90
2019,04,01,15,55,19.90
2019,04,01,15,56,19.80
2019,04,01,15,57,19.60
2019,04,01,15,58,19.50
2019,04,01,15,59,19.50
2019,04,01,16,00,19.50
2019,04,01,16,01,19.50
2019,04,01,16,02,19.60
2019,04,01,16,03,19.50
2019,04,01,16,04,19.50
2019,04,01,16,05,19.60
2019,04,01,16,06,19.80
2019,04,01,16,07,19.80
2019,04,01,16,08,19.80
2019,04,01,16,09,19.70
2019,04,01,16,10,19.60
2019,04,01,16,11,19.50
2019,04,01,16,12,19.40
2019,04,01,16,13,19.50
2019,04,01,16,14,19.50
2019,04,01,16,15,19.60
2019,04,01,16,16,19.70
2019,04,01,16,17,19.70
2019,04,01,16,18,19.70
2019,04,01,16,19,19.80
2019,04,01,16,20,19.80
2019,04,01,16,21,19.80
2019,04,01,16,22,19.80
2019,04,01,16,23,19.70
2019,04,01,16,24,19.70
2019,04,01,16,25,19.60
2019,04,01,16,26,19.60
2019,04,01,16,27,19.60
2019,04,01,16,28,19.60
2019,04,01,16,29,19.60
2019,04,01,16,30,19.60
2019,04,01,16,31,19.40
2019,04,01,16,32,19.30
2019,04,01,16,33,19.20
2019,04,01,16,34,19.10
2019,04,01,16,35,19.10
2019,04,01,16,36,19.10
2019,04,01,16,37,19.00
2019,04,01,16,38,19.00
2019,04,01,16,39,19.10
2019,04,01,16,40,19.30
2019,04,01,16,41,19.40
2019,04,01,16,42,19.40
2019,04,01,16,43,19.40
2019,04,01,16,44,19.40
2019,04,01,16,45,19.40
2019,04,01,16,46,19.40
2019,04,01,16,47,19.40
2019,04,01,16,48,19.50
2019,04,01,16,49,19.50
2019,04,01,16,50,19.60
2019,04,01,16,51,19.60
2019,04,01,16,52,19.60
2019,04,01,16,53,19.60
2019,04,01,16,54,19.60
2019,04,01,16,55,19.60
2019,04,01,16,56,19.60
2019,04,01,16,57,19.60
2019,04,01,16,58,19.60
2019,04,01,16,59,19.70
2019,04,01,17,00,19.70
2019,04,01,17,01,19.70
2019,04,01,17,02,19.60
2019,04,01,17,03,19.60
2019,04,01,17,04,19.60
2019,04,01,17,05,19.60
2019,04,01,17,06,19.70
2019,04,01,17,07,19.80
2019,04,01,17,08,19.80
2019,04,01,17,09,19.70
2019,04,01,17,10,19.60
2019,04,01,17,11,19.60
2019,04,01,17,12,19.60
2019,04,01,17,13,19.60
2019,04,01,17,14,19.70
2019,04,01,17,15,19.70
2019,04,01,17,16,19.80
2019,04,01,17,17,19.80
2019,04,01,17,18,19.80
2019,04,01,17,19,19.80
2019,04,01,17,20,19.80
2019,04,01,17,21,19.90
2019,04,01,17,22,19.90
2019,04,01,17,23,19.90
2019,04,01,17,24,19.90
2019,04,01,17,25,19.90
2019,04,01,17,26,19.90
2019,04,01,17,27,19.80
2019,04,01,17,28,19.80
2019,04,01,17,29,19.70
2019,04,01,17,30,19.70
2019,04,01,17,31,19.70
2019,04,01,17,32,19.60
2019,04,01,17,33,19.60
2019,04,01,17,34,19.60
2019,04,01,17,35,19.50
2019,04,01,17,36,19.50
2019,04,01,17,37,19.60
2019,04,01,17,38,19.60
2019,04,01,17,39,19.60
2019,04,01,17,40,19.50
2019,04,01,17,41,19.50